{"data":{"norad_id":58057,"intl_designator":"2023-158G","name":"STARLINK-30541","alt_names":[],"object_type":"PAYLOAD","status":"ACTIVE","operator":null,"country":"US","launch_date":"2023-10-13","launch_site_code":"AFETR","launch_vehicle":null,"mission":null,"orbit_class":"UNKNOWN","rcs_meters":null,"size_class":null,"mass_kg":null,"dimensions":null,"purposes":["comms"],"wikipedia_slug":null,"has_3d_model":false,"image_url":null,"decayed_at":null,"tle_current":{"epoch":"2026-09-20T08:27:48.093408Z","epoch_age_seconds":150429,"freshness":"FRESH","line1":"1 58057U 23158G   26263.35263997  .00000490  00000+0  27349-4 0  9998","line2":"2 58057  43.0044   7.4830 0001364 272.7356  87.3339 15.27576209163344","mean_motion":15.27576209,"eccentricity":0.0001364,"inclination_deg":43.0044,"raan_deg":7.483,"arg_perigee_deg":272.7356,"mean_anomaly_deg":87.3339,"bstar":2.7349e-5,"rev_number":16334,"period_min":94.266982656313,"perigee_km":482.12458034907,"apogee_km":483.9963150128,"semimajor_km":6861.1974476809,"source":"CELESTRAK","updated_at":"2026-09-21T09:00:33.778140Z"}}}